Location: Newark
(51.0500°N, 12.4500°E)
Time: 18:06:27
(UTC+00:00)

X-37B - Pass Details

Date: 12 March 2021
Orbit: 380 x 394 km, 45.0° (Epoch: 07 April)

Event Time Altitude Azimuth Distance (km) Brightness Sun altitude
Rises 18:18:50 0° 206° (SSW) 2,265 4.7 -11.6°
Reaches altitude 10° 18:22:17 10° 166° (SSE) 1,418 3.2 -12.1°
Maximum altitude 18:23:04 11° 152° (SSE) 1,380 3.0 -12.2°
Enters shadow 18:23:06 11° 151° (SSE) 1,380 3.0 -12.2°
